This demonstration page uses our WeatherBlox Daily Observations layout. Learn more.

Left ArrowRight Arrow

39.51506, -84.39828

Hourly Observations for February 21, 2018

Temp ( °F °C ) Dew Point ( °F °C ) Humidity (%) Winds ( mph kmh ) Pressure ( in mb ) Visibility ( mi km ) Precip ( " mm )
12:15 am 00:15 Partly Cloudy 69 20.4 57 13.9 66 66 SSW 14 22 30.09 1019 10 16 0.00 0.00
12:35 am 00:35 Clear 69 20.3 57 14 67 67 SSW 16 26 30.09 1019 10 16 0.00 0.00
12:55 am 00:55 Mostly Cloudy 68 20.2 57 14.1 68 68 SSW 17 28 30.06 1018 10 16 0.00 0.00
1:15 am 01:15 Cloudy 69 20.5 58 14.3 68 68 SSW 14 22 30.06 1018 10 16 0.00 0.00
1:35 am 01:35 Cloudy 69 20.5 58 14.4 68 68 SSW 15 24 30.06 1018 10 16 0.00 0.00
1:55 am 01:55 Partly Cloudy 69 20.3 58 14.4 69 69 SSW 15 24 30.06 1018 10 16 0.00 0.00
2:15 am 02:15 Clear 68 20.1 58 14.4 70 70 SSW 16 26 30.09 1019 10 16 0.00 0.00
2:35 am 02:35 Mostly Cloudy 68 20 58 14.4 70 70 SSW 13 20 30.06 1018 10 16 0.00 0.00
2:55 am 02:55 Clear 68 19.8 58 14.4 71 71 SSW 13 20 30.06 1018 10 16 0.00 0.00
3:15 am 03:15 Partly Cloudy 67 19.7 58 14.5 72 72 SSW 17 28 30.06 1018 10 16 0.00 0.00
3:35 am 03:35 Cloudy 68 19.9 58 14.6 72 72 SSW 17 28 30.06 1018 10 16 0.00 0.00
3:55 am 03:55 Mostly Cloudy 67 19.6 58 14.6 73 73 SSW 15 24 30.06 1018 10 16 0.00 0.00
4:15 am 04:15 Mostly Cloudy 68 19.8 58 14.7 73 73 SSW 18 30 30.06 1018 10 16 0.00 0.00
4:35 am 04:35 Mostly Cloudy 67 19.6 58 14.7 73 73 SSW 15 24 30.06 1018 10 16 0.00 0.00
4:55 am 04:55 Cloudy 68 19.8 59 14.8 73 73 SSW 15 24 30.06 1018 10 16 0.00 0.00
5:15 am 05:15 Cloudy 68 19.8 59 14.9 74 74 WNW 23 37 30.12 1020 10 16 0.00 0.00
5:35 am 05:35 Cloudy 58 14.3 54 12.3 88 88 NNW 17 28 30.18 1022 7 11 0.02 0.51
5:55 am 05:55 Cloudy 57 13.9 54 12.2 90 90 N 10 17 30.18 1022 10 16 0.02 0.51
6:15 am 06:15 Cloudy 57 13.8 54 12.3 91 91 NNE 7 11 30.21 1023 10 16 0.00 0.00
6:35 am 06:35 Cloudy 57 13.7 54 12.4 92 92 NE 7 11 30.21 1023 10 16 0.02 0.51
6:55 am 06:55 Cloudy 56 13.2 55 12.5 96 96 NE 6 9 30.21 1023 10 16 0.02 0.51
7:15 am 07:15 Cloudy 56 13.3 55 12.5 95 95 Calm 30.21 1023 10 16 0.00 0.00
7:35 am 07:35 Cloudy 55 13 54 12.4 96 96 WNW 6 9 30.24 1024 10 16 0.00 0.00
7:55 am 07:55 Cloudy 56 13.3 55 12.5 95 95 NW 5 7 30.27 1025 5 8 0.01 0.25
8:15 am 08:15 Cloudy 56 13.2 55 12.6 96 96 Calm 30.30 1026 7 11 0.01 0.25
8:35 am 08:35 Cloudy 56 13.2 55 12.9 98 98 Calm 30.30 1026 5 8 0.04 1.02
8:55 am 08:55 Cloudy 56 13.2 55 12.9 98 98 W 3 6 30.30 1026 7 11 0.04 1.02
9:15 am 09:15 Cloudy 56 13.1 55 12.8 98 98 NNW 16 26 30.30 1026 4 6 0.02 0.51
9:35 am 09:35 Cloudy 52 11.2 50 10.2 94 94 N 12 19 30.33 1027 10 16 0.02 0.51
9:55 am 09:55 Cloudy 51 10.5 49 9.5 94 94 NNE 8 13 30.33 1027 7 11 0.04 1.02
10:15 am 10:15 Cloudy 50 10 48 8.9 93 93 N 7 11 30.36 1028 7 11 0.01 0.25
10:35 am 10:35 Cloudy 49 9.2 46 8 92 92 NNW 12 19 30.39 1029 7 11 0.02 0.51
10:55 am 10:55 Cloudy 47 8.2 44 6.7 90 90 N 12 19 30.39 1029 10 16 0.03 0.76
11:15 am 11:15 Cloudy with Light Rain 46 8 44 6.6 91 91 N 12 19 30.42 1030 10 16 0.00 0.00
11:35 am 11:35 Cloudy with Light Rain 46 7.5 43 5.9 90 90 NNE 12 19 30.42 1030 10 16 0.00 0.00
11:55 am 11:55 Cloudy with Light Rain 45 7.4 43 6.1 92 92 N 8 13 30.42 1030 10 16 0.00 0.00
12:15 pm 12:15 Cloudy with Light Rain 45 7.3 43 5.9 91 91 N 6 9 30.48 1032 10 16 0.01 0.25
12:35 pm 12:35 Cloudy with Drizzle 45 7.4 42 5.8 90 90 N 7 11 30.48 1032 10 16 0.01 0.25
12:55 pm 12:55 Cloudy with Light Rain 45 7.4 42 5.6 88 88 NNE 12 19 30.48 1032 10 16 0.01 0.25
1:15 pm 13:15 Cloudy with Heavy Rain 45 7.3 42 5.5 88 88 N 13 20 30.45 1031 10 16 0.00 0.00
1:35 pm 13:35 Cloudy with Drizzle 45 7.3 42 5.5 88 88 N 12 19 30.45 1031 10 16 0.00 0.00
1:55 pm 13:55 Cloudy 45 7.4 43 5.9 90 90 N 10 17 30.42 1030 10 16 0.00 0.00
2:15 pm 14:15 Cloudy 45 7.3 42 5.8 90 90 N 9 15 30.45 1031 10 16 0.00 0.00
2:35 pm 14:35 Cloudy 45 7.3 42 5.8 90 90 NNE 10 17 30.45 1031 10 16 0.00 0.00
2:55 pm 14:55 Cloudy 45 7.4 42 5.8 90 90 NNE 8 13 30.42 1030 10 16 0.00 0.00
3:15 pm 15:15 Cloudy 45 7.3 42 5.7 90 90 N 10 17 30.48 1032 10 16 0.00 0.00
3:35 pm 15:35 Cloudy 45 7.1 42 5.4 89 89 N 13 20 30.48 1032 10 16 0.00 0.00
3:55 pm 15:55 Cloudy 44 6.9 41 5.2 89 89 NNE 10 17 30.48 1032 10 16 0.00 0.00
4:15 pm 16:15 Cloudy 44 6.7 41 4.9 88 88 NNE 12 19 30.48 1032 10 16 0.00 0.00
4:35 pm 16:35 Cloudy 43 6.3 40 4.6 89 89 NNE 13 20 30.48 1032 10 16 0.00 0.00
4:55 pm 16:55 Cloudy 43 6 40 4.5 90 90 NE 16 26 30.48 1032 10 16 0.00 0.00
5:15 pm 17:15 Cloudy 42 5.8 40 4.4 91 91 NNE 12 19 30.48 1032 10 16 0.00 0.00
5:35 pm 17:35 Cloudy 42 5.8 40 4.5 91 91 NE 10 17 30.48 1032 10 16 0.00 0.00
5:55 pm 17:55 Cloudy 42 5.7 40 4.4 91 91 NNE 8 13 30.50 1033 7 11 0.01 0.25
6:15 pm 18:15 Cloudy 42 5.6 40 4.4 92 92 NNE 9 15 30.53 1034 7 11 0.01 0.25
6:35 pm 18:35 Cloudy 42 5.5 40 4.4 93 93 N 8 13 30.53 1034 10 16 0.02 0.51
6:55 pm 18:55 Cloudy 42 5.4 40 4.4 93 93 NNE 9 15 30.53 1034 10 16 0.03 0.76
7:15 pm 19:15 Cloudy 42 5.4 40 4.4 93 93 NNE 9 15 30.53 1034 10 16 0.00 0.00
7:35 pm 19:35 Cloudy 42 5.5 40 4.5 93 93 NNE 9 15 30.53 1034 10 16 0.01 0.25
7:55 pm 19:55 Cloudy 42 5.5 40 4.5 93 93 NNE 9 15 30.56 1035 10 16 0.02 0.51
8:15 pm 20:15 Cloudy 42 5.5 40 4.5 93 93 NNE 10 17 30.56 1035 10 16 0.01 0.25
8:35 pm 20:35 Cloudy 42 5.5 40 4.6 94 94 NE 12 19 30.53 1034 10 16 0.01 0.25
8:55 pm 20:55 Cloudy 42 5.5 40 4.6 94 94 NE 13 20 30.53 1034 10 16 0.02 0.51
9:15 pm 21:15 Cloudy 42 5.7 41 4.8 94 94 NE 9 15 30.53 1034 7 11 0.00 0.00
9:35 pm 21:35 Cloudy 42 5.7 40 4.7 93 93 ENE 12 19 30.53 1034 7 11 0.01 0.25
9:55 pm 21:55 Cloudy 42 5.6 40 4.3 91 91 NE 15 24 30.53 1034 7 11 0.03 0.76
10:15 pm 22:15 Cloudy 42 5.4 39 4.1 91 91 ENE 13 20 30.53 1034 7 11 0.02 0.51
10:35 pm 22:35 Cloudy 41 5.1 39 4 93 93 E 10 17 30.50 1033 7 11 0.03 0.76
10:55 pm 22:55 Cloudy 41 5.1 39 3.9 92 92 ENE 9 15 30.53 1034 7 11 0.05 1.27
11:15 pm 23:15 Cloudy 41 5 39 3.8 92 92 NE 10 17 30.53 1034 10 16 0.01 0.25
11:35 pm 23:35 Cloudy 41 4.9 39 3.8 93 93 NNE 14 22 30.53 1034 10 16 0.01 0.25
11:55 pm 23:55 Cloudy 41 4.8 39 3.7 93 93 NE 12 19 30.53 1034 10 16 0.01 0.25

Powered by AerisWeather